Regional Weather Roundup
Issued by NWS

Home | Current Version | Previous Version | Graphics & Text | Print | Product List | Glossary On
Versions: 1 2 3 4 5 6 7 8 9 10 11 12 13 14 15 16 17 18 19 20 21 22 23 24 25 26 27 28 29 30 31 32 33 34 35 36 37 38 39 40 41 42 43 44 45 46 47 48 49 50
424
ASUS43 KLOT 191812
RWRIL

ILLINOIS REGIONAL WEATHER ROUNDUP
NATIONAL WEATHER SERVICE CHICAGO/ROMEOVILLE IL
1200 PM CST SUN FEB 19 2017

NOTE: "FAIR" INDICATES FEW OR NO CLOUDS BELOW 12,000 FEET WITH NO
SIGNIFICANT WEATHER AND/OR OBSTRUCTIONS TO VISIBILITY.

* THESE STATIONS ARE NOT UNDER NWS QUALITY CONTROL. THEY ALSO MAY NOT
  REPORT WEATHER SUCH AS PRECIPITATION OR FOG.

ILZ001-002-007-009-015-016-024-191900-
NORTHWEST ILLINOIS

CITY           SKY/WX    TMP DP  RH WIND       PRES   REMARKS
MOLINE         SUNNY     68  35  29 SE3       30.02F
6HR MIN TEMP:  27; 6HR MAX TEMP:  68;

STERLING*      SUNNY     62  45  53 VRB5      30.06S
SAVANNA*       SUNNY     56  41  57 W3        30.05S
$$

ILZ003-004-008-010-011-017-018-191900-
NORTH CENTRAL ILLINOIS

CITY           SKY/WX    TMP DP  RH WIND       PRES   REMARKS
ROCKFORD       MOSUNNY   63  36  36 SE8       30.07F
6HR MIN TEMP:  30; 6HR MAX TEMP:  63;

FREEPORT*      SUNNY     60  39  46 S7        30.07S
ROCHELLE*      SUNNY     62  41  46 S8        30.06S
DE KALB*       SUNNY     62  36  37 S7        30.06F
PERU*          SUNNY     62  39  43 SE5       30.05F
$$

ILZ005-006-012>014-019>023-191900-
NORTHEAST ILLINOIS

CITY           SKY/WX    TMP DP  RH WIND       PRES   REMARKS
CHICAGO-OHARE  MOSUNNY   63  27  25 SE6       30.05S
6HR MIN TEMP:  37; 6HR MAX TEMP:  63;

CHICAGO-MIDWAY MOSUNNY   63  28  26 S3        30.06S
6HR MIN TEMP:  38; 6HR MAX TEMP:  63;

AURORA         SUNNY     64  35  34 S8        30.06F
6HR MIN TEMP:  29; 6HR MAX TEMP:  65;

LANSING*       SUNNY     63  36  36 CALM      30.07S
JOLIET*        SUNNY     65  40  40 SW3       30.06F
WAUKEGAN       SUNNY     58  31  35 E8        30.05S
6HR MIN TEMP:  31; 6HR MAX TEMP:  59;

DUPAGE AIRPORT SUNNY     64  30  27 S5        30.05S
6HR MIN TEMP:  30; 6HR MAX TEMP:  64;

KANKAKEE*      SUNNY     59  44  58 S3        30.08S
WHEELING       SUNNY     62  29  28 VRB6      30.07S
6HR MIN TEMP:  30; 6HR MAX TEMP:  62;

MORRIS*        SUNNY     63  40  43 CALM      30.05F
ROMEOVILLE*    SUNNY     64  42  45 S7        30.06F
NORTHERLY ISL    N/A     52  30  43 E1          N/A
$$

LMZ740>746-191900-
SOUTHERN LAKE MICHIGAN

STATION/POSITION SKY/WX   TEMP    WIND        PRES    VSBY  WAVE
                          AIR SEA DIR/SP/G                  HT/PER
                          (F)     (DEG/KT/KT) (MB)    (MI)  (FT/S)
HARRISON CRIB              56        CALM       N/A
BURNHAM HARBOR             52      80/  2/  4   N/A
CALUMET HARBOR             51      60/  4/  5 1017.8R
BURNS HARBOR               43     360/  3/  6 1019.0R
MICHIGAN CITY              48     300/  8/  8   N/A
$$

ILZ025>027-034>036-040-047-049-050-058-095>099-191900-
WEST-CENTRAL ILLINOIS

CITY           SKY/WX    TMP DP  RH WIND       PRES   REMARKS
QUINCY         SUNNY     67  49  52 CALM      30.03F
GALESBURG*     SUNNY     66  41  39 S7        30.03F
MACOMB*        SUNNY     65  45  48 S7        30.06F
JACKSONVILLE*  SUNNY     65  49  54 S5        30.05F
PITTSFIELD*    SUNNY     68  51  54 CALM      30.05S
$$

ILZ028>032-037-038-041>044-048-051>054-059>061-191900-
CENTRAL ILLINOIS

CITY           SKY/WX    TMP DP  RH WIND       PRES   REMARKS
PONTIAC        SUNNY     64  42  44 CALM      30.07F
BLOOMINGTON    SUNNY     57  48  72 S8        30.07F
DECATUR        MOSUNNY   55  49  80 SW6       30.07F
PEORIA         SUNNY     58  44  60 S8        30.06F
6HR MIN TEMP:  34; 6HR MAX TEMP:  58;

LACON*         SUNNY     65  39  38 SW7       30.04F
LINCOLN*       MOSUNNY   54  53  94 S6        30.07F
SPRINGFIELD    SUNNY     59  49  69 S7        30.07F
6HR MIN TEMP:  41; 6HR MAX TEMP:  59;

TAYLORVILLE    MOSUNNY   55  52  89 CALM      30.08F
6HR MIN TEMP:  46; 6HR MAX TEMP:  55;

$$

ILZ033-039-045-046-055>057-062-063-191900-
EAST-CENTRAL ILLINOIS

CITY           SKY/WX    TMP DP  RH WIND       PRES   REMARKS
CHAMPAIGN      SUNNY     58  48  69 S5        30.08F
RANTOUL*       SUNNY     55  50  82 S3        30.08F
MATTOON        SUNNY     57  51  80 S5        30.08S HAZE
PARIS*         SUNNY     57  49  74 CALM      30.09F
$$

ILZ079-100>102-191900-
SOUTHWEST ILLINOIS

CITY           SKY/WX    TMP DP  RH WIND       PRES   REMARKS
ALTON          SUNNY     57  52  82 S6        30.08F
BELLEVILLE     CLOUDY    52  52 100 VRB3      30.08F
CAHOKIA*       SUNNY     63  52  67 SE6       30.07F
SPARTA*        CLOUDY    55  54  94 E3        30.11S
$$

ILZ064>066-069>071-074>076-080>082-084>086-088>090-092>094-191900-
SOUTH-CENTRAL ILLINOIS

CITY           SKY/WX    TMP DP  RH WIND       PRES   REMARKS
CARBONDALE     CLOUDY    57  54  89 SW7       30.11R
6HR MIN TEMP:  52; 6HR MAX TEMP:  57;

CAIRO*         CLOUDY    51  51 100 CALM      30.13S FOG
EFFINGHAM*     CLOUDY    53  52  95 SE3       30.11F FOG
MARION         CLOUDY    57  57 100 S6        30.12R FOG
MT. VERNON     CLOUDY    57  51  80 S3        30.10S HAZE
CENTRALIA*     MOSUNNY   61  53  75 SW3       30.08F
SALEM*         CLOUDY    59  52  76 CALM      30.10S HAZE
METROPOLIS*    CLOUDY    51  51  99 CALM      30.13S FOG
$$

ILZ067-068-072-073-078-083-087-091-191900-
SOUTHEAST ILLINOIS

CITY           SKY/WX    TMP DP  RH WIND       PRES   REMARKS
LAWRENCEVILLE  CLOUDY    53  49  86 CALM      30.11F FOG
FLORA*         CLOUDY    55  52  88 S5        30.10F FOG
FAIRFIELD*     CLOUDY    53  51  94 CALM      30.10S FOG
HARRISBURG*    CLOUDY    54  52  95 SE3       30.11S FOG
ROBINSON*      PTSUNNY   55  49  80 S5        30.11F HAZE
CARMI*         CLOUDY    52  51  98 CALM      30.11S FOG
$$

ABBREVIATIONS USED IN REMARKS
   TC - TEMPERATURE IN CELSIUS
  WCI - WIND CHILL INDEX
   HX - HEAT INDEX
  VSB - VISIBILITY
$$





USA.gov is the U.S. government's official web portal to all federal, state and local government web resources and services.